Weather Roundup
Issued by NWS Springfield, MO

Home | Current Version | Previous Version | Text Only | Print | Product List | Glossary On
Versions: 1 2 3 4 5 6 7 8 9 10 11 12 13 14 15 16 17 18 19 20 21 22 23 24 25 26 27 28 29 30 31 32 33 34 35 36 37 38 39 40 41 42 43 44 45 46 47 48 49 50
000
NZUS99 KSGF 261307
HRRSGF

HOURLY WEATHER
NATIONAL WEATHER SERVICE SPRINGFIELD MO
700 AM CST MON JAN 26 2015

......SGF CWA......

CITY           SKY/WX    TMP DP  RH WIND       PRES   REMARKS
SPRINGFIELD    PTCLDY    29  26  89 SW6       30.07S WCI  23
JOPLIN         CLEAR     26  24  92 S6        30.10F WCI  19
WEST PLAINS    CLOUDY    32  27  81 W7        30.06R WCI  26
ROLLA          CLOUDY    29  26  89 W7        30.04R WCI  22
OSAGE BEACH    MOCLDY    30  27  86 W3        30.07R
BRANSON        MOCLDY    32  28  86 CALM      30.10R

......SURROUNDING SGF CWA......

CITY           SKY/WX    TMP DP  RH WIND       PRES   REMARKS
CHANUTE        CLEAR     26  25  96 S6        30.08F WCI  19
PARSONS        CLEAR     22  21  96 CALM      30.10F FOG
COFFEYVILLE    CLEAR     25  24  96 S6        30.12S WCI  18
EMPORIA        CLEAR     28  26  92 S8        30.02F WCI  20
GROVE OK       CLEAR     28  28 100 S3        30.15S
ROGERS AR      CLEAR     30  27  88 SW6       30.11F WCI  24
SILOAM SPRINGS PTCLDY    28  21  74 SW3       30.14S
HARRISON AR    CLOUDY    34  29  82 W8        30.09S WCI  27
NEAR YELLVILLE CLOUDY    36  27  69 NW10      30.11R WCI  28

......KANSAS AND MISSOURI......

CITY           SKY/WX    TMP DP  RH WIND       PRES   REMARKS
KANSAS CTY INT CLEAR     25  23  92 SW7       30.01S WCI  17
DOWNTOWN KC    CLEAR     30  27  88 SW5       30.03R WCI  25
COLUMBIA       CLOUDY    30  27  88 SW5       30.05R WCI  25
SEDALIA        CLEAR     29  26  89 SW8       30.07R WCI  21
ST JOSEPH      CLEAR     26  23  88 S9        29.99F WCI  17
ST LOUIS       MOCLDY    28  22  78 NW9       30.06R WCI  19
SPIRIT OF STL  CLOUDY    27  22  81 W6        30.07R WCI  20
KIRKSVILLE     CLOUDY    31  28  89 SW7       30.00F WCI  24
WICHITA        CLEAR     29  24  82 SW12      30.03F WCI  19
TOPEKA         CLEAR     29  26  89 SW3       30.01F
OLATHE         CLEAR     28  26  92 SW6       30.02S WCI  22

......TENNESSEE......

CITY           SKY/WX    TMP DP  RH WIND       PRES   REMARKS
MEMPHIS        CLOUDY    38  29  70 N12G18    30.09R WCI  30
NASHVILLE      CLOUDY    33  29  85 NW13G21   29.96R WCI  24

......ARKANSAS.......

CITY           SKY/WX    TMP DP  RH WIND       PRES   REMARKS
FAYETTEVILLE   CLEAR     26  25  96 S6        30.13S WCI  19
FT SMITH       CLEAR     31  28  89 SW8       30.18R WCI  23
LITTLE ROCK    PTCLDY    37  29  72 W5        30.15R WCI  33

......OKLAHOMA.......

CITY           SKY/WX    TMP DP  RH WIND       PRES   REMARKS
TULSA          CLEAR     28  26  92 S3        30.14F
PONCA CITY     CLEAR     26  22  84 S3        30.11F
MCALESTER      PTCLDY    27  24  89 CALM      30.17S
OKLAHOMA CITY  CLEAR     28  24  85 S6        30.13S WCI  22

......IOWA............

CITY           SKY/WX    TMP DP  RH WIND       PRES   REMARKS
DES MOINES     MOCLDY    33  27  78 S7        29.93F WCI  27
QUAD CITIES    CLOUDY    19  14  81 CALM      29.99R

......ILLINOIS........

CITY           SKY/WX    TMP DP  RH WIND       PRES   REMARKS
QUINCY         CLOUDY    26  22  84 S8        29.99F WCI  18
CHICAGO        MOCLDY    16  12  84 NW5       29.95S WCI   9



USA.gov is the U.S. government's official web portal to all federal, state and local government web resources and services.